Location: Dehesa de la Cepeda
(40.6574°N, 4.3013°W)
Time: 14:05:42
(UTC+00:00)

Explorer 7 - Pass Details

Date: 14 August 2021
Orbit: 484 x 676 km, 50.3° (Epoch: 27 September)

Event Time Altitude Azimuth Distance (km) Brightness Sun altitude
Rises 04:28:25 0° 305° (NW) 2,550 10.0 -10.9°
Reaches altitude 10° 04:30:51 10° 319° (NW) 1,678 9.2 -10.5°
Maximum altitude 04:34:01 25° 16° (NNE) 1,042 8.8 -9.9°
Drops below altitude 10° 04:37:16 10° 73° (ENE) 1,724 10.9 -9.4°
Sets 04:39:48 0° 87° (E) 2,638 11.6 -9.0°
